Location: The Saddle
(36.8333°N, 80.3417°W)
Time: 07:14:59
(UTC-04:00)

Vanguard 2 Rocket - Pass Details

Date: 06 February 2023
Orbit: 555 x 3316 km, 32.9° (Epoch: 27 March)

Event Time Altitude Azimuth Distance (km) Brightness Sun altitude
Rises 10:59:37 0° 257° (WSW) 3,717 9.9 32.9°
Reaches altitude 10° 11:02:46 10° 253° (WSW) 2,439 9.1 33.2°
Maximum altitude 11:07:55 52° 178° (S) 793 8.1 33.7°
Drops below altitude 10° 11:11:48 10° 101° (E) 1,847 9.1 34.0°
Sets 11:13:54 0° 96° (E) 2,719 9.7 34.2°
